OpenBCM V1.08-5-g2f4a (Linux)

Packet Radio Mailbox

IZ3LSV

[San Dona' di P. JN]

 Login: GUEST





  
I0OJJ  > KEPS     13.07.25 01:40l 342 Lines 16338 Bytes #64 (0) @ AMSAT
BID : ORB25194.1
Read: GUEST
Subj: 2Line Orbital Elements 25194.AMSAT
Path: IZ3LSV<IK6IHL<IK7NXU<HB9ON<HB9ON<PI8ZTM<PI8LAP<VE2PKT<PY2BIL<LU9DCE<
      EA2RCF<I0OJJ
Sent: 250713/0025z @:I0OJJ.ITA.EU [Rome] obcm1.08-10-g596e
From: I0OJJ @ I0OJJ.ITA.EU (Gustavo)
To:   KEPS @ AMSAT
X-Info: This message was generated automatically


QST de W1STR

AMSAT Orbital Elements for Amateur Satellites in TLE Format
From Orbital Analysis Office
New England Sci-Tech STEM Education Center
Natick, MA July 13, 2025
To all radio amateurs


These element sets describe the orbits of various satellites 
in use by the amateur radio community. For details see:
www.amsat.org/keplerian-elements-formats/

A daily update of element sets is available at:
www.amsat.org/tle/daily-bulletin.txt
or without bulletin text:
www.amsat.org/tle/dailytle.txt


AO-07
1 07530U 74089B   25193.54297271 -.00000037  00000-0  57052-4 0  9994
2 07530 101.9934 198.1581 0012600  60.3104  92.4499 12.53690144317957
UO-11
1 14781U 84021B   25193.45272256  .00000930  00000-0  10345-3 0  9997
2 14781  97.7562 159.1759 0006695 219.6680 140.4048 14.89461475206530
AO-27
1 22825U 93061C   25193.43477881  .00000070  00000-0  43989-4 0  9994
2 22825  98.7352 255.1515 0008749  24.2731 335.8862 14.30808179658416
FO-29
1 24278U 96046B   25193.43109310 -.00000005  00000-0  33424-4 0  9995
2 24278  98.5715  82.9967 0348875 257.4579  98.7334 13.53250287427211
NOAA-15
1 25338U 98030A   25193.83685934  .00000176  00000-0  89973-4 0  9991
2 25338  98.5338 218.1655 0009013 260.7614  99.2548 14.26995623413143
GO-32
1 25397U 98043D   25193.49789108  .00000031  00000-0  33672-4 0  9995
2 25397  98.9720 173.3070 0002322 102.5614 257.5824 14.24321628402970
ISS
1 25544U 98067A   25193.85404543  .00008910  00000-0  16104-3 0  9996
2 25544  51.6339 179.8465 0002658   4.5975 355.5038 15.50507838519141
NO-44
1 26931U 01043C   25193.40819290  .00000070  00000-0  57188-4 0  9992
2 26931  67.0510  42.9613 0006236 276.8873  83.1519 14.31747420241800
SO-50
1 27607U 02058C   25193.15288510  .00000895  00000-0  12870-3 0  9990
2 27607  64.5528  99.9841 0059900 326.9452  32.7914 14.81703706214053
CO-55
1 27844U 03031E   25193.49316146  .00000207  00000-0  10901-3 0  9999
2 27844  98.6757 201.3416 0010924  91.8124 268.4306 14.24016866143327
CO-57
1 27848U 03031J   25193.45697761  .00000179  00000-0  98058-4 0  9992
2 27848  98.6784 201.2868 0010740 107.4691 252.7663 14.23348704143049
RS-22
1 27939U 03042A   25193.84699678  .00000711  00000-0  12057-3 0  9993
2 27939  98.3305   4.1072 0010141 263.9074 227.9291 14.72414749165728
CO-58
1 28895U 05043F   25193.37136639  .00001091  00000-0  18566-3 0  9992
2 28895  98.2538 338.1397 0014130 198.2729 161.7971 14.71098290 51762
CO-65
1 32785U 08021C   25193.59229550  .00003660  00000-0  26431-3 0  9997
2 32785  97.7875 165.0083 0011516  99.7917 260.4609 15.04681824934045
CO-66
1 32791U 08021J   25193.44268318  .00009279  00000-0  44230-3 0  9992
2 32791  97.7287 174.2333 0005468  70.2559 289.9264 15.19325789935487
RS-30
1 32953U 08025A   25193.80076093  .00000016  00000-0  41891-4 0  9994
2 32953  82.5009 206.5183 0018673 337.0424  22.9819 12.43166218777669
NOAA-19
1 33591U 09005A   25193.82978981  .00000165  00000-0  11205-3 0  9991
2 33591  98.9960 258.7188 0012660 269.5415  90.4306 14.13388424846806
SRMSAT
1 37841U 11058D   25193.69742456  .00000357  00000-0  50392-4 0  9999
2 37841  19.9732 314.1436 0011871  69.0127  67.8673 14.11443873710013
ZACUBE-1
1 39417U 13066B   25193.41007470  .00003201  00000-0  27912-3 0  9993
2 39417  97.7808 150.2571 0042570 303.3917  56.3235 14.96904447629829
Delfi-N3xt
1 39428U 13066N   25193.49883935  .00003442  00000-0  35196-3 0  9991
2 39428  97.8333 110.7885 0082566 251.8691 107.3521 14.88719887623977
GOMX-1
1 39430U 13066Q   25193.82410001  .00001455  00000-0  23072-3 0  9993
2 39430  97.6806  50.4438 0133820  86.0575 275.5917 14.67747478620288
LO-74
1 39440U 13066AA  25193.58335977  .00003037  00000-0  30833-3 0  9996
2 39440  97.8505 137.9199 0063434  71.6661 289.1442 14.90111622626351
AO-73
1 39444U 13066AE  25193.37881850  .00005399  00000-0  40209-3 0  9994
2 39444  97.7830 155.4256 0040835 275.7457  83.9112 15.02693703628517
DTUSAT-2
1 40030U 14033W   25193.52490728  .00004631  00000-0  30038-3 0  9996
2 40030  98.0570 166.9478 0007691 317.4741  42.5889 15.08608366601364
EO-80
1 40032U 14033Y   25193.41076077  .00005319  00000-0  34360-3 0  9999
2 40032  98.0446 166.4374 0007050 245.0826 114.9669 15.08682398601320
LILACSAT-2
1 40908U 15049K   25193.82931502  .00009782  00000-0  25059-3 0  9990
2 40908  97.5041 214.9903 0010244  50.8440 309.3714 15.39546878543341
IO-86
1 40931U 15052B   25151.18580175  .00001241  00000-0  78118-4 0  9996
2 40931   6.0006  24.0987 0012733 338.8432  21.1169 14.78805930523047
Horyu-4
1 41340U 16012D   25193.52086523  .00016915  00000-0  43386-3 0  9992
2 41340  30.9964 270.2134 0006464  49.3093 310.8114 15.38052656517868
Lapan A3
1 41603U 16040E   25193.85654069  .00002529  00000-0  89286-4 0  9993
2 41603  97.1370 197.1622 0012096 142.9665 217.2414 15.30042162502879
CAS-2T
1 41847U 16066G   25193.81528200  .00001077  00000-0  16029-3 0  9995
2 41847  98.4193 267.9852 0346927  78.0353 285.9501 14.43580990455812
CAS-4B
1 42759U 17034B   25193.83854454  .00070554  00000-0  62638-3 0  9992
2 42759  43.0054 123.0539 0020119 168.1624 191.9719 15.67371904447813
CAS-4A
1 42761U 17034D   25193.84179597  .00072201  00000-0  59950-3 0  9998
2 42761  43.0093 119.7862 0021382 173.0397 187.0770 15.68954932447840
TechnoSat
1 42829U 17042E   25193.82540854  .00002660  00000-0  20754-3 0  9990
2 42829  97.3859   0.9386 0016859 163.2757 196.9027 15.01849370435716
AO-91
1 43017U 17073E   25193.17316495  .00007419  00000-0  37482-3 0  9997
2 43017  97.5212  63.1198 0172879  55.9412 305.8092 15.05189525414110
S-Net D
1 43186U 18014G   25193.58953945  .00003103  00000-0  18394-3 0  9999
2 43186  97.5596  96.1602 0010757 108.3282 251.9120 15.12071384407365
S-Net B
1 43187U 18014H   25193.26448926  .00003470  00000-0  20536-3 0  9991
2 43187  97.5604  95.8119 0011482 105.5321 254.7178 15.12049464407317
S-Net A
1 43188U 18014J   25193.58981700  .00003185  00000-0  18868-3 0  9997
2 43188  97.5609  96.2882 0011376 105.1363 255.1126 15.12076701407366
S-Net C
1 43189U 18014K   25193.46551233  .00003430  00000-0  20297-3 0  9991
2 43189  97.5626  96.1850 0012916  99.4924 260.7767 15.12046117405896
Ten-Koh
1 43677U 18084G   25193.46886777  .00001461  00000-0  12048-3 0  9991
2 43677  98.0847   7.0259 0008398 144.7082 215.4698 15.00691724365174
PO-101
1 43678U 18084H   25193.84478344  .00002189  00000-0  18848-3 0  9993
2 43678  98.1056  11.2412 0008858 162.4850 197.6678 14.98451067365367
QO-100
1 43700U 18090A   25193.81711676  .00000153  00000-0  00000+0 0  9997
2 43700   0.0227  53.9712 0002588  96.7943 100.1347  1.00269314 24519
MinXSS-2
1 43758U 18099A   25193.44122962  .00012384  00000-0  47527-3 0  9990
2 43758  97.5002 259.5985 0012237  47.6394 312.5878 15.26549693361984
AO-95
1 43770U 18099N   25193.42138415  .00006704  00000-0  33519-3 0  9997
2 43770  97.4895 251.1505 0012258  99.0149 261.2472 15.17703284361534
RANGE-A
1 43773U 18099R   25193.88401073  .00003878  00000-0  24655-3 0  9993
2 43773  97.4459 241.3212 0012783  80.2876 279.9796 15.09332008361247
MOVE-II
1 43780U 18099Y   25193.82020548  .04764146  24892-5  19312-2 0  9998
2 43780  97.4566 272.7353 0016519 265.8816  94.0587 16.23089906363085
SNUSat 2
1 43782U 18099AA  25193.63479672  .00005163  00000-0  27949-3 0  9994
2 43782  97.4573 247.8420 0012829  46.2557 313.9735 15.14999422361501
SnugLite
1 43784U 18099AC  25193.57617109  .00006635  00000-0  32910-3 0  9997
2 43784  97.4387 247.4132 0004512  60.0509 300.1173 15.18043058361641
ITASat 1
1 43786U 18099AE  25193.61152164  .00004393  00000-0  24991-3 0  9998
2 43786  97.4545 247.2308 0015963  93.2550 267.0508 15.13263240361452
EAGLET 1
1 43790U 18099AJ  25193.56961908  .00003281  00000-0  20951-3 0  9998
2 43790  97.4740 247.0360 0013482  78.9730 281.3015 15.09274754361048
ESEO
1 43792U 18099AL  25193.36392121  .00000637  00000-0  51945-4 0  9993
2 43792  97.4433 239.6593 0013800  53.5082 306.7412 15.02699679360746
CSIM
1 43793U 18099AM  25193.27152027  .00105075  00000-0  46930-3 0  9992
2 43793  97.4765 273.8970 0001746 151.0224 209.1142 15.83950987362808
JO-97
1 43803U 18099AX  25193.60705053  .00007834  00000-0  35163-3 0  9994
2 43803  97.4640 252.3981 0008002  41.8214 318.3631 15.21429004361799
Suomi 100
1 43804U 18099AY  25193.60974503  .00006536  00000-0  31591-3 0  9992
2 43804  97.4706 251.6011 0012921  40.3157 319.9033 15.18891275361718
ISAT
1 43879U 18111D   25193.31751924  .00016310  00000-0  54750-3 0  9990
2 43879  97.5938 108.4541 0010752  85.5520 274.6948 15.30894238358703
UWE-4
1 43880U 18111E   25193.64839125  .00011402  00000-0  43631-3 0  9991
2 43880  97.5881 107.0349 0013875  94.5240 265.7583 15.26648879356674
Sparrow
1 43881U 18111F   25193.33773446  .00016974  00000-0  54744-3 0  9997
2 43881  97.6087 111.4822 0008904 116.1365 244.0793 15.32193116358801
Prox-1
1 44339U 19036A   25193.38044964  .00007673  00000-0  94680-3 0  9993
2 44339  23.9950 206.2490 0007887  89.1220 271.0181 14.80465598322881
SONATE
1 44400U 19038Q   25185.47540524  .09032085  27445-5  31847-3 0  9995
2 44400  97.6609 216.4776 0012462 246.7970 113.2018 16.43248376333575
Taurus 1
1 44530U 19059C   25193.82898133  .00004445  00000-0  81758-3 0  9991
2 44530  98.6106 334.8123 0007915 292.2634  67.7729 14.66143167308819
Duchifat 3
1 44854U 19089C   25193.26541835  .00039931  00000-0  71702-3 0  9991
2 44854  36.9411 146.9903 0006605 238.5405 121.4707 15.48910368308083
TO-108
1 44881U 19093C   25193.83227519  .00000628  00000-0  78464-4 0  9993
2 44881  97.7918 268.7864 0015099 119.8067 240.4652 14.85654567301014
